Change the Weather History Date:

Thursday, May 30, 2013

  Actual Average (KBGD) Record (KBGD)
Temperature  
Mean Temperature 72 °F 72 °F  
Max Temperature 90 °F 85 °F 101 °F (2003)
Min Temperature 55 °F 60 °F 46 °F (1983)
Degree Days  
Heating Degree Days 0 0  
Month to date heating degree days 60  
Since 1 July heating degree days 3763  
Cooling Degree Days 8 8  
Month to date cooling degree days 146  
Year to date cooling degree days 190  
Growing Degree Days 22 (Base 50)    
Moisture  
Dew Point 31 °F    
Average Humidity 27    
Maximum Humidity 60    
Minimum Humidity 8    
Precipitation  
Precipitation 0.00 in 0.13 in 1.52 in (1991)
Month to date precipitation 2.75  
Year to date precipitation 6.91  
Snow  
Snow 0.00 in - T in (1997)
Month to date snowfall  
Since 1 July snowfall  
Snow Depth -    
Sea Level Pressure  
Sea Level Pressure 29.71 in    
Wind  
Wind Speed 15 mph (West)    
Max Wind Speed 28 mph    
Max Gust Speed 37 mph    
Visibility 10 miles    
Events      
T = Trace of Precipitation, MM = Missing Value Source: NWS Daily Summary

Daily Weather History Graph

Daily Weather History Graph

Search for Another Location

Airport or City:

Trip Planner

Search our weather history database for the weather conditions in past years. The results will help you decide how hot, cold, wet, or windy it might be!

Date:

Astronomy

May. 30, 2013 Rise Set
Actual Time 6:33 AM CDT 8:57 PM CDT
Civil Twilight 6:04 AM CDT 9:27 PM CDT
Nautical Twilight 5:27 AM CDT 10:03 PM CDT
Astronomical Twilight 4:47 AM CDT 10:44 PM CDT
Moon 1:06 AM CDT (5/30) 12:36 PM CDT (5/30)
Length of Visible Light 15h 23m
Length of Day
14h 24m
Waning Gibbous, 62% of the Moon is Illuminated
May 30
Waning Gibbous
May 31
Last Quarter
Jun 8
New
Jun 16
First Quarter
Jun 23
Full

Hourly Weather History & Observations

Time (CDT) Temp. Dew Point Humidity Pressure Visibility Wind Dir Wind Speed Gust Speed Precip Events Conditions
12:15 AM 68.5 °F 23.2 °F 18% 29.58 in 10.0 mi West 18.4 mph 21.9 mph N/A   Clear
12:35 AM 67.5 °F 32.2 °F 27% 29.60 in 10.0 mi NW 19.6 mph 26.5 mph N/A   Clear
12:55 AM 64.4 °F 41.9 °F 44% 29.61 in 10.0 mi NW 19.6 mph - N/A   Clear
1:15 AM 64.4 °F 38.8 °F 39% 29.62 in 10.0 mi NNW 21.9 mph 27.6 mph N/A   Scattered Clouds
1:35 AM 63.5 °F 38.8 °F 40% 29.63 in 10.0 mi NNW 20.7 mph 26.5 mph N/A   Clear
1:55 AM 62.6 °F 38.8 °F 42% 29.64 in 10.0 mi NNW 17.3 mph 21.9 mph N/A   Clear
2:15 AM 61.7 °F 39.0 °F 43% 29.64 in 10.0 mi NNW 13.8 mph - N/A   Clear
2:35 AM 60.8 °F 39.2 °F 45% 29.64 in 10.0 mi NW 13.8 mph - N/A   Clear
2:55 AM 59.9 °F 39.4 °F 47% 29.64 in 10.0 mi NW 10.4 mph - N/A   Clear
3:15 AM 59.0 °F 39.7 °F 49% 29.64 in 10.0 mi NNW 11.5 mph - N/A   Clear
3:35 AM 58.3 °F 39.9 °F 50% 29.65 in 10.0 mi NW 12.7 mph - N/A   Clear
3:55 AM 58.5 °F 40.5 °F 51% 29.66 in 10.0 mi NW 13.8 mph - N/A   Clear
4:15 AM 57.7 °F 40.6 °F 53% 29.67 in 10.0 mi NW 13.8 mph - N/A   Clear
4:35 AM 57.0 °F 41.0 °F 55% 29.69 in 10.0 mi WNW 13.8 mph - N/A   Clear
4:55 AM 57.4 °F 41.0 °F 54% 29.69 in 10.0 mi WNW 11.5 mph - N/A   Clear
5:15 AM 59.7 °F 39.6 °F 47% 29.69 in 10.0 mi NNW 13.8 mph - N/A   Clear
5:35 AM 57.2 °F 40.1 °F 53% 29.71 in 10.0 mi NW 11.5 mph - N/A   Clear
5:55 AM 55.0 °F 41.0 °F 59% 29.72 in 10.0 mi NW 10.4 mph - N/A   Clear
6:15 AM 55.4 °F 40.8 °F 58% 29.72 in 10.0 mi NNW 10.4 mph - N/A   Clear
6:35 AM 56.1 °F 41.2 °F 57% 29.73 in 10.0 mi NW 9.2 mph - N/A   Clear
6:55 AM 55.2 °F 41.4 °F 60% 29.74 in 10.0 mi NW 8.1 mph - N/A   Clear
7:15 AM 55.9 °F 41.5 °F 58% 29.76 in 10.0 mi WNW 6.9 mph - N/A   Clear
7:35 AM 57.2 °F 41.4 °F 55% 29.77 in 10.0 mi West 6.9 mph - N/A   Clear
7:55 AM 60.4 °F 41.2 °F 49% 29.78 in 10.0 mi West 8.1 mph - N/A   Clear
8:15 AM 62.8 °F 42.8 °F 48% 29.79 in 10.0 mi West 8.1 mph - N/A   Clear
8:35 AM 64.0 °F 43.3 °F 47% 29.79 in 10.0 mi West 9.2 mph - N/A   Clear
8:55 AM 65.8 °F 42.8 °F 43% 29.79 in 10.0 mi West 6.9 mph - N/A   Clear
9:15 AM 68.2 °F 42.4 °F 39% 29.80 in 10.0 mi West 6.9 mph - N/A   Clear
9:35 AM 70.2 °F 40.1 °F 34% 29.80 in 10.0 mi WNW 5.8 mph - N/A   Clear
9:55 AM 70.9 °F 38.5 °F 31% 29.81 in 10.0 mi West 3.5 mph - N/A   Clear
10:15 AM 72.7 °F 37.8 °F 28% 29.80 in 10.0 mi West 6.9 mph - N/A   Clear
10:35 AM 73.6 °F 38.3 °F 28% 29.80 in 10.0 mi SW 6.9 mph - N/A   Clear
10:55 AM 75.4 °F 38.3 °F 26% 29.80 in 10.0 mi SW 10.4 mph - N/A   Clear
11:15 AM 77.0 °F 36.1 °F 23% 29.79 in 10.0 mi WSW 17.3 mph 26.5 mph N/A   Clear
11:35 AM 78.4 °F 34.9 °F 21% 29.79 in 10.0 mi SW 18.4 mph 24.2 mph N/A   Clear
11:55 AM 79.0 °F 29.7 °F 16% 29.78 in 10.0 mi SW 15.0 mph 25.3 mph N/A   Clear
12:15 PM 79.9 °F 28.8 °F 15% 29.78 in 10.0 mi WSW 16.1 mph 28.8 mph N/A   Clear
12:35 PM 81.1 °F 27.5 °F 14% 29.79 in 10.0 mi West 18.4 mph 31.1 mph N/A   Clear
12:55 PM 82.0 °F 28.4 °F 14% 29.78 in 10.0 mi West 17.3 mph 27.6 mph N/A   Clear
1:15 PM 83.7 °F 28.9 °F 14% 29.77 in 10.0 mi WSW 15.0 mph 33.4 mph N/A   Clear
1:35 PM 82.6 °F 28.6 °F 14% 29.76 in 10.0 mi West 16.1 mph 29.9 mph N/A   Clear
1:55 PM 84.2 °F 26.1 °F 12% 29.75 in 10.0 mi SW 20.7 mph 29.9 mph N/A   Clear
2:15 PM 84.9 °F 25.0 °F 11% 29.74 in 10.0 mi WSW 17.3 mph 26.5 mph N/A   Clear
2:35 PM 85.8 °F 23.9 °F 10% 29.73 in 10.0 mi WSW 12.7 mph 27.6 mph N/A   Clear
2:55 PM 87.3 °F 24.3 °F 10% 29.73 in 10.0 mi WSW 19.6 mph 31.1 mph N/A   Clear
3:15 PM 87.3 °F 24.1 °F 10% 29.72 in 10.0 mi WSW 17.3 mph 35.7 mph N/A   Clear
3:35 PM 87.8 °F 22.3 °F 9% 29.71 in 10.0 mi SW 21.9 mph 35.7 mph N/A   Clear
3:55 PM 88.0 °F 22.8 °F 9% 29.71 in 10.0 mi SW 18.4 mph 36.8 mph N/A   Clear
4:15 PM 89.1 °F 22.8 °F 9% 29.71 in 10.0 mi WSW 21.9 mph 34.5 mph N/A   Clear
4:35 PM 89.1 °F 22.5 °F 9% 29.69 in 10.0 mi SW 24.2 mph 35.7 mph N/A   Clear
4:55 PM 90.3 °F 22.5 °F 9% 29.69 in 10.0 mi SW 27.6 mph 35.7 mph N/A   Clear
5:15 PM 89.4 °F 22.5 °F 9% 29.68 in 10.0 mi WSW 21.9 mph 36.8 mph N/A   Clear
5:35 PM 89.8 °F 22.3 °F 9% 29.67 in 10.0 mi SW 25.3 mph 35.7 mph N/A   Clear
5:55 PM 89.8 °F 21.7 °F 8% 29.66 in 10.0 mi WSW 20.7 mph 33.4 mph N/A   Clear
6:15 PM 90.5 °F 21.2 °F 8% 29.66 in 10.0 mi WSW 19.6 mph 36.8 mph N/A   Clear
6:35 PM 89.6 °F 20.7 °F 8% 29.66 in 10.0 mi SW 23.0 mph 28.8 mph N/A   Clear
6:55 PM 90.3 °F 21.7 °F 8% 29.65 in 10.0 mi SW 23.0 mph 31.1 mph N/A   Clear
7:15 PM 89.8 °F 22.8 °F 9% 29.65 in 10.0 mi SW 24.2 mph 27.6 mph N/A   Clear
7:35 PM 88.9 °F 22.3 °F 9% 29.65 in 10.0 mi WSW 21.9 mph 28.8 mph N/A   Clear
7:55 PM 88.2 °F 23.4 °F 9% 29.64 in 10.0 mi WSW 17.3 mph 28.8 mph N/A   Clear
8:15 PM 87.1 °F 23.4 °F 10% 29.64 in 10.0 mi SW 16.1 mph 24.2 mph N/A   Clear
8:35 PM 84.9 °F 23.4 °F 10% 29.64 in 10.0 mi SW 10.4 mph - N/A   Clear
8:55 PM 81.1 °F 22.6 °F 12% 29.65 in 10.0 mi SSW 8.1 mph - N/A   Clear
9:15 PM 77.9 °F 22.1 °F 13% 29.65 in 10.0 mi SSW 8.1 mph - N/A   Clear
9:35 PM 75.0 °F 21.2 °F 13% 29.66 in 10.0 mi WSW 9.2 mph - N/A   Clear
9:55 PM 73.4 °F 23.9 °F 16% 29.68 in 10.0 mi West 11.5 mph - N/A   Clear
10:15 PM 73.9 °F 23.0 °F 15% 29.69 in 10.0 mi West 11.5 mph - N/A   Clear
10:35 PM 72.5 °F 22.1 °F 15% 29.71 in 10.0 mi West 11.5 mph - N/A   Clear
10:55 PM 72.3 °F 21.4 °F 15% 29.72 in 10.0 mi West 12.7 mph - N/A   Clear
11:15 PM 71.2 °F 22.5 °F 16% 29.74 in 10.0 mi WNW 15.0 mph - N/A   Clear
11:35 PM 69.1 °F 23.0 °F 18% 29.75 in 10.0 mi North 17.3 mph - N/A   Clear
11:55 PM 68.2 °F 25.0 °F 20% 29.76 in 10.0 mi North 12.7 mph - N/A   Clear